| time (UTC) | temp C | wind direction | speed KPH | gust KPH | rain 1hr cm | rain 24hr cm | rain mn cm | humidity % | barometer mb |
| 20260905200105 | 35 | 139 | 9.7 | 20.9 | 0.00 | 0.00 | 0.00 | 42 | 986.6 |
| 20260905194553 | 35 | 219 | 3.2 | 20.9 | 0.00 | 0.00 | 0.00 | 44 | 986.9 |
| 20260905193050 | 34 | 114 | 4.8 | 17.7 | 0.00 | 0.00 | 0.00 | 46 | 987.2 |
| 20260905191548 | 35 | 195 | 8.0 | 16.1 | 0.00 | 0.00 | 0.00 | 45 | 987.5 |
| 20260905190047 | 34 | 189 | 8.0 | 16.1 | 0.00 | 0.00 | 0.00 | 48 | 987.8 |
| 20260905184528 | 34 | 152 | 12.9 | 19.3 | 0.00 | 0.00 | 0.00 | 48 | 988.0 |
| 20260905183025 | 34 | 211 | 6.4 | 17.7 | 0.00 | 0.00 | 0.00 | 49 | 988.2 |
| 20260905181522 | 33 | 209 | 6.4 | 14.5 | 0.00 | 0.00 | 0.00 | 47 | 988.6 |
| 20260905180019 | 33 | 221 | 11.3 | 19.3 | 0.00 | 0.00 | 0.00 | 51 | 988.9 |
| 20260905174522 | 33 | 205 | 12.9 | 20.9 | 0.00 | 0.00 | 0.00 | 48 | 989.0 |
| 20260905173015 | 32 | 205 | 14.5 | 22.5 | 0.00 | 0.00 | 0.00 | 53 | 989.2 |
| 20260905171526 | 32 | 195 | 3.2 | 14.5 | 0.00 | 0.00 | 0.00 | 57 | 989.4 |
| 20260905170015 | 32 | 180 | 9.7 | 19.3 | 0.00 | 0.00 | 0.00 | 56 | 989.7 |
| 20260905164511 | 31 | 248 | 9.7 | 19.3 | 0.00 | 0.00 | 0.00 | 57 | 989.6 |
| 20260905163010 | 31 | 205 | 14.5 | 29.0 | 0.00 | 0.00 | 0.00 | 60 | 989.7 |
| 20260905161511 | 31 | 228 | 12.9 | 17.7 | 0.00 | 0.00 | 0.00 | 60 | 989.7 |
| 20260905160008 | 30 | 222 | 11.3 | 17.7 | 0.00 | 0.00 | 0.00 | 62 | 989.6 |
| 20260905154505 | 30 | 197 | 12.9 | 19.3 | 0.00 | 0.00 | 0.00 | 64 | 989.6 |
| 20260905153002 | 30 | 194 | 12.9 | 19.3 | 0.00 | 0.00 | 0.00 | 66 | 989.5 |
| 20260905151544 | 30 | 217 | 8.0 | 17.7 | 0.00 | 0.00 | 0.00 | 66 | 989.6 |
| 20260905150047 | 29 | 259 | 6.4 | 16.1 | 0.00 | 0.00 | 0.00 | 65 | 989.6 |
| 20260905144539 | 28 | 259 | 6.4 | 14.5 | 0.00 | 0.00 | 0.00 | 61 | 989.7 |
| 20260905143033 | 27 | 187 | 9.7 | 16.1 | 0.00 | 0.00 | 0.00 | 49 | 989.6 |
| 20260905141533 | 26 | 218 | 3.2 | 8.0 | 0.00 | 0.00 | 0.00 | 36 | 989.7 |
| 20260905140028 | 26 | 194 | 6.4 | 9.7 | 0.00 | 0.00 | 0.00 | 31 | 989.6 |
| 20260905134525 | 25 | 195 | 1.6 | 6.4 | 0.00 | 0.00 | 0.00 | 26 | 989.5 |
| 20260905133020 | 24 | 213 | 0.0 | 0.0 | 0.00 | 0.00 | 0.00 | 23 | 989.3 |
| 20260905131503 | 23 | 215 | 0.0 | 0.0 | 0.00 | 0.00 | 0.00 | 23 | 989.4 |
| 20260905130059 | 23 | 216 | 0.0 | 0.0 | 0.00 | 0.00 | 0.00 | 23 | 989.1 |
| 20260905124538 | 22 | 216 | 0.0 | 0.0 | 0.00 | 0.00 | 0.00 | 25 | 989.0 |
| 20260905123039 | 22 | 216 | 0.0 | 0.0 | 0.00 | 0.00 | 0.00 | 29 | 988.7 |
| 20260905121522 | 22 | 216 | 0.0 | 0.0 | 0.00 | 0.00 | 0.00 | 29 | 988.6 |
| 20260905120024 | 22 | 216 | 0.0 | 0.0 | 0.00 | 0.00 | 0.00 | 33 | 988.5 |
| 20260905114520 | 23 | 216 | 0.0 | 0.0 | 0.00 | 0.03 | 0.00 | 32 | 988.4 |
| 20260905113017 | 22 | 216 | 0.0 | 0.0 | 0.00 | 0.03 | 0.00 | 34 | 988.3 |
| 20260905111518 | 23 | 216 | 3.2 | 4.8 | 0.00 | 0.03 | 0.00 | 37 | 988.2 |
| 20260905110012 | 23 | 216 | 0.0 | 0.0 | 0.00 | 0.03 | 0.00 | 35 | 988.2 |
| 20260905104517 | 23 | 216 | 0.0 | 0.0 | 0.00 | 0.03 | 0.00 | 34 | 988.1 |
| 20260905103009 | 24 | 216 | 0.0 | 0.0 | 0.00 | 0.03 | 0.00 | 36 | 988.1 |
| 20260905101551 | 24 | 217 | 0.0 | 0.0 | 0.00 | 0.03 | 0.00 | 37 | 988.1 |
| 20260905100046 | 24 | 216 | 0.0 | 0.0 | 0.00 | 0.03 | 0.00 | 41 | 988.0 |
| 20260905094613 | 24 | 217 | 1.6 | 4.8 | 0.00 | 0.03 | 0.00 | 43 | 987.9 |
| 20260905093032 | 24 | 216 | 3.2 | 8.0 | 0.00 | 0.03 | 0.00 | 44 | 987.9 |
| 20260905091530 | 25 | 223 | 4.8 | 8.0 | 0.00 | 0.03 | 0.00 | 43 | 988.0 |
| 20260905090031 | 25 | 235 | 6.4 | 11.3 | 0.00 | 0.03 | 0.00 | 44 | 988.1 |
| 20260905084525 | 25 | 238 | 6.4 | 8.0 | 0.00 | 0.03 | 0.03 | 48 | 988.1 |
| 20260905083024 | 25 | 240 | 6.4 | 11.3 | 0.00 | 0.03 | 0.03 | 50 | 988.0 |
| 20260905081523 | 25 | 239 | 8.0 | 12.9 | 0.00 | 0.03 | 0.03 | 52 | 988.1 |
| 20260905080022 | 25 | 234 | 6.4 | 11.3 | 0.00 | 0.03 | 0.03 | 55 | 988.2 |
| 20260905074512 | 25 | 211 | 6.4 | 12.9 | 0.00 | 0.03 | 0.03 | 57 | 988.2 |
| 20260905073011 | 25 | 221 | 4.8 | 9.7 | 0.00 | 0.03 | 0.03 | 60 | 988.3 |
| 20260905071509 | 25 | 200 | 6.4 | 11.3 | 0.00 | 0.03 | 0.03 | 61 | 988.3 |
| 20260905070009 | 25 | 203 | 8.0 | 11.3 | 0.00 | 0.03 | 0.03 | 61 | 988.5 |
| 20260905064508 | 25 | 216 | 6.4 | 9.7 | 0.00 | 0.03 | 0.03 | 62 | 988.6 |
| 20260905063008 | 25 | 210 | 4.8 | 8.0 | 0.00 | 0.03 | 0.03 | 64 | 988.6 |
| 20260905061508 | 26 | 208 | 4.8 | 8.0 | 0.00 | 0.03 | 0.03 | 64 | 988.7 |
| 20260905060009 | 26 | 207 | 4.8 | 9.7 | 0.00 | 0.03 | 0.03 | 65 | 988.8 |
| 20260905054608 | 26 | 210 | 4.8 | 9.7 | 0.00 | 0.03 | 0.03 | 65 | 988.6 |
| 20260905053049 | 26 | 188 | 4.8 | 9.7 | 0.00 | 0.03 | 0.03 | 66 | 988.7 |
| 20260905051604 | 26 | 185 | 3.2 | 6.4 | 0.00 | 0.03 | 0.03 | 67 | 988.7 |
| 20260905050030 | 26 | 184 | 4.8 | 8.0 | 0.00 | 0.03 | 0.03 | 68 | 988.8 |
| 20260905044529 | 26 | 184 | 3.2 | 8.0 | 0.00 | 0.03 | 0.03 | 68 | 988.7 |
| 20260905043017 | 27 | 184 | 4.8 | 8.0 | 0.00 | 0.03 | 0.03 | 68 | 988.7 |
| 20260905041511 | 27 | 179 | 6.4 | 11.3 | 0.00 | 0.03 | 0.03 | 68 | 988.6 |
| 20260905040106 | 27 | 177 | 8.0 | 11.3 | 0.00 | 0.03 | 0.03 | 68 | 988.6 |
| 20260905034554 | 27 | 178 | 8.0 | 11.3 | 0.00 | 0.03 | 0.03 | 68 | 988.6 |
| 20260905033032 | 27 | 175 | 6.4 | 11.3 | 0.00 | 0.03 | 0.03 | 68 | 988.6 |
| 20260905031538 | 28 | 169 | 6.4 | 9.7 | 0.00 | 0.03 | 0.03 | 68 | 988.4 |
| 20260905030018 | 28 | 155 | 4.8 | 9.7 | 0.00 | 0.03 | 0.03 | 68 | 988.4 |
| 20260905024537 | 28 | 153 | 4.8 | 11.3 | 0.00 | 0.03 | 0.03 | 67 | 988.5 |
| 20260905023021 | 28 | 165 | 6.4 | 11.3 | 0.00 | 0.03 | 0.03 | 67 | 988.2 |
| 20260905021515 | 29 | 171 | 9.7 | 11.3 | 0.00 | 0.03 | 0.03 | 67 | 988.0 |
| 20260905020015 | 29 | 169 | 11.3 | 14.5 | 0.00 | 0.03 | 0.03 | 67 | 987.8 |
| 20260905014514 | 29 | 159 | 9.7 | 16.1 | 0.00 | 0.03 | 0.03 | 67 | 987.5 |
| 20260905013013 | 30 | 163 | 9.7 | 16.1 | 0.00 | 0.03 | 0.03 | 67 | 987.6 |
| 20260905011512 | 30 | 159 | 8.0 | 14.5 | 0.00 | 0.03 | 0.03 | 65 | 987.4 |
| 20260905010012 | 30 | 167 | 11.3 | 17.7 | 0.00 | 0.03 | 0.03 | 64 | 987.2 |
| 20260905004511 | 30 | 153 | 11.3 | 16.1 | 0.00 | 0.03 | 0.03 | 62 | 987.0 |
| 20260905003054 | 30 | 153 | 9.7 | 17.7 | 0.00 | 0.03 | 0.03 | 61 | 987.0 |
| 20260905001554 | 30 | 190 | 11.3 | 14.5 | 0.00 | 0.03 | 0.03 | 60 | 986.9 |
| 20260905000036 | 30 | 176 | 9.7 | 16.1 | 0.00 | 0.03 | 0.03 | 60 | 987.0 |
| 20260904234537 | 31 | 200 | 11.3 | 17.7 | 0.00 | 0.03 | 0.03 | 59 | 986.9 |
| 20260904233016 | 31 | 184 | 12.9 | 24.1 | 0.00 | 0.03 | 0.03 | 58 | 986.8 |
| 20260904231516 | 31 | 155 | 16.1 | 27.4 | 0.00 | 0.03 | 0.03 | 57 | 986.8 |
| 20260904230109 | 32 | 150 | 17.7 | 27.4 | 0.00 | 0.03 | 0.03 | 54 | 986.7 |
| 20260904224615 | 34 | 137 | 17.7 | 27.4 | 0.00 | 0.03 | 0.03 | 49 | 986.6 |
| 20260904223058 | 34 | 124 | 14.5 | 25.7 | 0.00 | 0.03 | 0.03 | 45 | 986.7 |
| 20260904221539 | 34 | 138 | 16.1 | 29.0 | 0.00 | 0.03 | 0.03 | 45 | 986.4 |
| 20260904220025 | 35 | 138 | 12.9 | 25.7 | 0.00 | 0.03 | 0.03 | 43 | 986.6 |
| 20260904214523 | 34 | 140 | 14.5 | 25.7 | 0.00 | 0.03 | 0.03 | 47 | 986.9 |
| 20260904213018 | 34 | 115 | 14.5 | 25.7 | 0.00 | 0.03 | 0.03 | 51 | 987.2 |
| 20260904211516 | 33 | 132 | 16.1 | 32.2 | 0.00 | 0.03 | 0.03 | 51 | 987.3 |
| 20260904210016 | 34 | 206 | 9.7 | 20.9 | 0.00 | 0.03 | 0.03 | 44 | 987.3 |
| 20260904204513 | 34 | 150 | 14.5 | 27.4 | 0.00 | 0.03 | 0.03 | 44 | 987.5 |
| 20260904203011 | 33 | 179 | 9.7 | 22.5 | 0.00 | 0.03 | 0.03 | 49 | 987.7 |
| 20260904201509 | 33 | 211 | 16.1 | 29.0 | 0.00 | 0.03 | 0.03 | 53 | 987.9 |